Погода в Жижице

Россия / Псковская область     56°17′01″N   31°20′59″E
темп.,
°C
ветер,
м/с
пор.,
м/с
влажн.,
%
обл.,
%
осадки,
мм/ч
давл.,
гПа
погр.,
м
12 апреля, пн
пн1200:00+7ююв39865 0.0 1028165
03:00+6ююв39855 0.0 1029160
06:00+5юв398811 0.0 1029171
09:00+10ююв410672 0.0 1029383
12:00+14ююв58450 0.0 10281185
15:00+16юв583694 0.0 10251522
18:00+13юв5842100 0.0 1024944
21:00+8юв41076100 0.1 1024587
13 апреля, вт
вт1300:00+8ююв31193100 1.3 1024574
03:00+8ююв2797100 2.1 1023303
06:00+8ююв2598100 0.1 1022162
09:00+10ю2488100 0.1 1022318
12:00+13ю3475100 0.0 1022670
15:00+13ю2477100 0.0 1021443
18:00+11юв0096100 0.8 102011
21:00+10св1197100 1.6 102014
14 апреля, ср
ср1400:00+10всв2598100 1.6 1019129
03:00+9вюв2297100 2.4 101858
06:00+9ююв2396100 0.0 101766
09:00+10ююв2796100 0.1 1017356
12:00+13юз367460 0.4 1017947
15:00+13з247378 0.9 1017654
18:00+11с3588100 0.7 1018341
21:00+7с3793100 0.8 1019297
15 апреля, чт
чт1500:00+6с3894100 0.0 1019321
03:00+6ссв3895100 0.4 1018343
06:00+5ссв389698 2.8 1018297
09:00+5с3897100 5.3 1019311
12:00+5с3896100 1.4 1019341
15:00+5с4894100 1.4 1019362
18:00+5ссв4994100 0.0 1019442
21:00+5ссв41095100 0.1 1020398
16 апреля, пт
пт1600:00+5ссв41094100 0.6 1020431
03:00+5ссв41194100 1.0 1020517
06:00+5ссв51293100 0.2 1020602
09:00+5св51291100 0.6 1021671
12:00+5св51291100 0.3 1023669
15:00+6св4118189 0.8 1024765
18:00+9всв5116258 0.0 1025994
21:00+6св413701 0.0 1027589